Location: Unspecified
(54.1780°N, 0.0000°E)
Time: 05:02:00
(UTC+00:00)

Transit 2A - Pass Details

Date: 24 June 2019
Orbit: 594 x 964 km, 66.7° (Epoch: 20 July)

Event Time Altitude Azimuth Distance (km) Brightness Sun altitude
Rises 09:42:14 0° 312° (NW) 3,448 9.0 49.6°
Reaches altitude 10° 09:45:35 10° 295° (WNW) 2,433 8.3 50.0°
Maximum altitude 09:49:07 17° 255° (WSW) 1,883 8.0 50.4°
Drops below altitude 10° 09:52:26 10° 215° (SW) 2,259 8.6 50.8°
Sets 09:55:24 0° 196° (SSW) 3,102 9.4 51.2°
